[[{"header":{"parameterUnit":"m.s-1","parameterCategory":2,"la1":30.2991,"la2":30.254,"lo1":-89.0895,"lo2":-89.0444,"dy":0.0017,"dx":0.0017,"nx":28,"ny":28,"refTime":"2024-05-02T09:00:00:Z","depth":"0","parameterNumber":2,"parameterNumberName":"U-component_of_CURRENTS"},"data":[0,0,0,0,0,0,0,0,0,0,0,0,0,0,0,0,0,0,0,0,0,0,0,0,0,0,0,0,0,0,0,0,0,0,0,0,0,0,0,0,0,0,0,0,0,0,0,0,0,0,0,0,0,0,0,0,0,0,0.3672,0.3673,0,0.3752,0.3752,0.3752,0.3787,0.3788,0.3789,0.3789,0.3815,0.3816,0.3816,0,0,0,0,0,0,0,0,0,0,0,0,0,0.3484,0.3487,0.3672,0.3674,0.3675,0.3752,0.3752,0.3752,0.3787,0.3788,0.3789,0.3789,0.3815,0.3815,0.3816,0,0,0,0,0,0,0,0,0,0,0,0,0,0.3558,0.3488,0.3672,0.3707,0.3712,0.3752,0.3752,0.3753,0.3787,0.3788,0.3789,0.379,0.3815,0.3815,0.3816,0.3801,0,0,0.3817,0.3817,0,0,0,0,0,0,0,0,0.3554,0.3564,0.37,0.3705,0.371,0.3767,0.3696,0.3769,0.3787,0.3751,0.3789,0.379,0.3798,0.38,0.3803,0.3802,0.3803,0.3817,0.3817,0.3817,0.3817,0,0,0,0,0,0,0,0.3549,0.356,0.3696,0.3702,0.3708,0.3697,0.3708,0.3709,0.3762,0.3754,0.3759,0.3779,0.38,0.3803,0.3804,0.3803,0.3817,0.3817,0.3817,0.3817,0.384,0.384,0,0,0,0,0,0,0.3557,0.3556,0.3694,0.3699,0.3641,0.3701,0.3713,0.3742,0.3763,0.377,0.3778,0.378,0.3802,0.3804,0.3805,0.3829,0.3817,0.3817,0.3817,0.3839,0.384,0.384,0,0,0,0,0,0,0.3553,0.3569,0.3691,0.3634,0.365,0.3705,0.3736,0.3743,0.3757,0.3784,0.3788,0.3787,0.3803,0.3805,0.3821,0.3829,0.3817,0.3817,0.3839,0.3839,0.384,0.385,0,0,0,0,0,0,0.3547,0.3567,0.3574,0.3636,0.3654,0.3707,0.3736,0.3744,0.3772,0.3775,0.3792,0.3795,0.3804,0.382,0.3821,0.3829,0.3818,0.3838,0.3839,0.384,0.3849,0.3851,0.3852,0,0,0,0,0,0.354,0.3543,0.3574,0.3591,0.3669,0.3707,0.3713,0.3749,0.3771,0.3766,0.3795,0.3795,0.3826,0.3821,0.3822,0.383,0.3838,0.3839,0.384,0.3848,0.385,0.3852,0,0,0,0,0,0,0.3452,0.355,0.3585,0.3615,0.366,0.3716,0.3718,0.375,0.3768,0.3776,0.3798,0.3803,0.3825,0.3822,0.3815,0.3839,0.3832,0.3834,0.3839,0.3841,0.3842,0.387,0.3818,0,0,0,0,0,0.3444,0.3479,0.3561,0.3581,0.3608,0.3665,0.3683,0.3715,0.375,0.376,0.3777,0.3798,0.3827,0.383,0.3846,0.3848,0.385,0.3854,0.3856,0.3857,0.3881,0.3928,0.3936,0.3843,0.3843,0.3843,0,0,0.3417,0.3473,0.3494,0.3565,0.3604,0.3648,0.3675,0.3708,0.3743,0.3758,0.3787,0.3806,0.3832,0.3849,0.3857,0.3846,0.3867,0.3859,0.386,0.3883,0.393,0.3939,0.3948,0.3844,0.3844,0.3844,0,0,0.3387,0.3433,0.3462,0.3505,0.3576,0.3618,0.3632,0.3693,0.3716,0.3748,0.3783,0.3812,0.3826,0.386,0.3878,0.3895,0.3883,0.3889,0.391,0.3955,0.3963,0.3971,0.3908,0.3911,0.3879,0.3879,0.3879,0,0.3353,0.3407,0.3466,0.3509,0.3546,0.3611,0.3646,0.3682,0.3737,0.3768,0.3756,0.3834,0.3841,0.3906,0.3912,0.3902,0.3893,0.3899,0.3958,0.3967,0.3975,0.391,0.3912,0.388,0.388,0.388,0.388,0,0.3362,0.3403,0.3416,0.3508,0.3546,0.3577,0.3659,0.369,0.3725,0.3775,0.3834,0.3852,0.3907,0.3903,0.3912,0.3975,0.3933,0.3963,0.3955,0.3985,0.3913,0.3915,0.3881,0.3881,0.3881,0.388,0,0,0.3291,0.3405,0.3409,0.3447,0.355,0.3578,0.3649,0.373,0.3781,0.3824,0.3879,0.3933,0.396,0.3984,0.3997,0.4023,0.4032,0.4013,0.4015,0.3952,0.4057,0.404,0.404,0.4082,0.4085,0.4086,0.3955,0,0.3279,0.3344,0.3413,0.3466,0.3504,0.3593,0.3648,0.3733,0.3796,0.3855,0.3916,0.3959,0.3988,0.3993,0.4046,0.4045,0.4054,0.4061,0.4038,0.4036,0.4022,0.405,0.3999,0.3883,0.3958,0.3958,0.3958,0,0.3257,0.331,0.3359,0.3452,0.3478,0.3519,0.3626,0.3688,0.3813,0.386,0.3955,0.3997,0.4054,0.4059,0.411,0.4113,0.4099,0.4085,0.4081,0.4081,0.4029,0.3882,0.3885,0.3816,0.3963,0.3962,0.3962,0,0.3156,0.3258,0.3289,0.3325,0.3449,0.3483,0.3549,0.368,0.3731,0.3856,0.3884,0.4004,0.4015,0.4071,0.4079,0.4089,0.4102,0.4106,0.4068,0.4059,0.4023,0.4011,0.3973,0.4152,0.4153,0.4153,0.4153,0,0.3099,0.3119,0.324,0.3256,0.329,0.3408,0.3458,0.3555,0.3676,0.3731,0.3868,0.391,0.4029,0.4061,0.4075,0.4078,0.4106,0.408,0.4059,0.4014,0.4003,0.395,0.3917,0.4148,0.4149,0.415,0.4151,0,0.2971,0.3052,0.3086,0.3207,0.3235,0.3256,0.3372,0.3419,0.3548,0.3617,0.3642,0.3818,0.3884,0.3965,0.4017,0.404,0.3947,0.4039,0.393,0.3902,0.382,0.3788,0.3556,0.3445,0.396,0.3959,0.3959,0,0.2916,0.2922,0.3015,0.3028,0.3074,0.3129,0.3165,0.3321,0.3385,0.3551,0.357,0.368,0.3784,0.386,0.3938,0.3961,0.3873,0.3889,0.394,0.3821,0.377,0.359,0.35,0.3831,0.3829,0.3828,0.3827,0,0.2814,0.2839,0.2874,0.2899,0.2925,0.2962,0.304,0.3075,0.3257,0.3327,0.345,0.3543,0.3698,0.3776,0.3851,0.3865,0.3737,0.3863,0.38,0.3731,0.3473,0.3353,0.3828,0.3816,0.3817,0.3818,0.3818,0.3819,0.2728,0.2717,0.2761,0.2766,0.2791,0.2811,0.2803,0.2916,0.2994,0.3112,0.3288,0.3399,0.3617,0.377,0.3735,0.3707,0.3642,0.3666,0.364,0.3466,0.3377,0.379,0.3745,0.3745,0.3746,0.3746,0.3747,0,0.2627,0.2629,0.2634,0.2636,0.2608,0.2671,0.2722,0.2716,0.2763,0.2938,0.306,0.3304,0.342,0.3537,0.3643,0.3541,0.3346,0.3439,0.3201,0.3129,0.3567,0.3591,0.3441,0.3441,0.3441,0.3441,0.3441,0.3441,0.258,0.2538,0.2536,0.2459,0.2456,0.2393,0.2397,0.242,0.2522,0.2651,0.2791,0.2971,0.3296,0.3497,0.3473,0.3386,0.3116,0.2981,0.2899,0.3286,0.3305,0.3323,0.3339,0.3139,0.3139,0.2364,0.2359,0.2355]},{"header":{"parameterUnit":"m.s-1","parameterCategory":2,"la1":30.2991,"la2":30.254,"lo1":-89.0895,"lo2":-89.0444,"dy":0.0017,"dx":0.0017,"nx":28,"ny":28,"refTime":"2024-05-02T09:00:00:Z","depth":"0","parameterNumber":3,"parameterNumberName":"V-component_of_CURRENTS"},"data":[0,0,0,0,0,0,0,0,0,0,0,0,0,0,0,0,0,0,0,0,0,0,0,0,0,0,0,0,0,0,0,0,0,0,0,0,0,0,0,0,0,0,0,0,0,0,0,0,0,0,0,0,0,0,0,0,0,0,-0.0181,-0.0182,0,-0.0275,-0.0276,-0.0277,-0.0345,-0.0346,-0.0346,-0.0347,-0.0473,-0.0475,-0.0478,0,0,0,0,0,0,0,0,0,0,0,0,0,-0.0079,-0.008,-0.0181,-0.0182,-0.0183,-0.0275,-0.0276,-0.0277,-0.0345,-0.0346,-0.0347,-0.0347,-0.0472,-0.0475,-0.0478,0,0,0,0,0,0,0,0,0,0,0,0,0,-0.0142,-0.0081,-0.0181,-0.0229,-0.0234,-0.0275,-0.0276,-0.0278,-0.0345,-0.0346,-0.0347,-0.0348,-0.0471,-0.0475,-0.0479,-0.0484,0,0,-0.0491,-0.0493,0,0,0,0,0,0,0,0,-0.0139,-0.0146,-0.022,-0.0226,-0.0232,-0.03,-0.0287,-0.0349,-0.0345,-0.0302,-0.0347,-0.0348,-0.0418,-0.0426,-0.044,-0.049,-0.0496,-0.0491,-0.0494,-0.0496,-0.0497,0,0,0,0,0,0,0,-0.0134,-0.0142,-0.0217,-0.0222,-0.0229,-0.0253,-0.0262,-0.0299,-0.0353,-0.0306,-0.0311,-0.0323,-0.0421,-0.0436,-0.0443,-0.0497,-0.0491,-0.0495,-0.0498,-0.0499,-0.0593,-0.0593,0,0,0,0,0,0,-0.0123,-0.0138,-0.0214,-0.022,-0.0188,-0.0254,-0.0265,-0.0276,-0.0352,-0.0365,-0.0322,-0.0326,-0.0428,-0.0439,-0.0448,-0.0455,-0.0496,-0.05,-0.0502,-0.0593,-0.0593,-0.0593,0,0,0,0,0,0,-0.012,-0.0128,-0.021,-0.0182,-0.0194,-0.0254,-0.0267,-0.0278,-0.0291,-0.0364,-0.0377,-0.0324,-0.0429,-0.0442,-0.0497,-0.0461,-0.0501,-0.0505,-0.0593,-0.0593,-0.0593,-0.0472,0,0,0,0,0,0,-0.0117,-0.0127,-0.0118,-0.0181,-0.0196,-0.0217,-0.0267,-0.0279,-0.0298,-0.0303,-0.037,-0.0383,-0.0431,-0.049,-0.0501,-0.0467,-0.0508,-0.0593,-0.0593,-0.0593,-0.0476,-0.0468,-0.0461,0,0,0,0,0,-0.0113,-0.009,-0.0117,-0.0126,-0.0186,-0.0216,-0.0224,-0.027,-0.0296,-0.0288,-0.0359,-0.0381,-0.0497,-0.0494,-0.0506,-0.0473,-0.0593,-0.0593,-0.0593,-0.0479,-0.0469,-0.0461,0,0,0,0,0,0,-0.0029,-0.0098,-0.0128,-0.0125,-0.0163,-0.0227,-0.0219,-0.0259,-0.0306,-0.0313,-0.039,-0.0408,-0.0438,-0.0482,-0.0476,-0.0504,-0.0545,-0.0547,-0.0454,-0.0445,-0.0438,-0.0392,-0.0512,0,0,0,0,0,-0.001,-0.0018,-0.0085,-0.0078,-0.0094,-0.0156,-0.0171,-0.0205,-0.0261,-0.0281,-0.0334,-0.0395,-0.0446,-0.0468,-0.0516,-0.0532,-0.0555,-0.0519,-0.0512,-0.0505,-0.0479,-0.05,-0.049,-0.0593,-0.0593,-0.0593,0,0,0.0022,-0.0012,-0.0018,-0.0061,-0.0094,-0.0103,-0.0166,-0.0178,-0.0185,-0.0287,-0.0305,-0.0369,-0.0448,-0.0471,-0.0486,-0.0502,-0.0489,-0.0505,-0.0498,-0.0475,-0.0499,-0.0488,-0.0479,-0.0593,-0.0593,-0.0593,0,0,0.0088,0.0055,0.0067,0.0039,-0.0004,-0.0044,-0.0044,-0.0105,-0.0128,-0.0167,-0.0241,-0.0292,-0.0362,-0.0409,-0.0445,-0.0426,-0.0452,-0.0435,-0.0352,-0.0372,-0.0363,-0.0355,-0.0365,-0.0359,-0.0426,-0.0426,-0.0426,0,0.0131,0.013,0.0072,0.0075,0.0064,-0.0013,0.0,-0.0032,-0.0102,-0.0111,-0.0155,-0.0258,-0.033,-0.0357,-0.0358,-0.0403,-0.0414,-0.0374,-0.0358,-0.0351,-0.0344,-0.0357,-0.0352,-0.042,-0.0421,-0.0422,-0.0422,0,0.0191,0.0193,0.0205,0.0175,0.0161,0.0164,0.0103,0.0091,0.0045,0.0007,-0.0028,-0.0133,-0.0188,-0.0221,-0.0288,-0.0275,-0.0296,-0.0345,-0.0368,-0.0326,-0.0344,-0.034,-0.0412,-0.0414,-0.0416,-0.0417,0,0,0.0274,0.025,0.0254,0.026,0.0212,0.021,0.0207,0.0185,0.0202,0.0128,0.014,0.0033,-0.0011,-0.0056,-0.0137,-0.0163,-0.0149,-0.0221,-0.0225,-0.0208,-0.0172,-0.0192,-0.0191,-0.0184,-0.0183,-0.0182,-0.0199,0,0.0337,0.0374,0.034,0.0378,0.0388,0.0329,0.0339,0.0312,0.0278,0.0275,0.0178,0.0149,0.0049,0.0026,-0.0011,-0.0119,-0.0134,-0.0138,-0.0236,-0.0239,-0.0242,-0.0186,-0.0147,-0.0158,-0.0196,-0.0195,-0.0195,0,0.04,0.0417,0.0467,0.0478,0.0479,0.0495,0.0507,0.0506,0.0476,0.0451,0.0413,0.0334,0.0274,0.0179,0.0064,0.0072,-0.0026,-0.0111,-0.0115,-0.0167,-0.0252,-0.0211,-0.0151,-0.0333,-0.0191,-0.0191,-0.0191,0,0.048,0.0505,0.0555,0.0554,0.0554,0.0579,0.0583,0.057,0.0592,0.0571,0.058,0.0498,0.0453,0.0334,0.0143,0.0115,0.002,-0.005,-0.0153,-0.0156,-0.0158,-0.0163,-0.0262,-0.0108,-0.0108,-0.0108,-0.0108,0,0.055,0.0589,0.0603,0.0629,0.0702,0.0673,0.0749,0.0739,0.0751,0.0793,0.0686,0.0697,0.0491,0.0392,0.0221,0.0059,0.0081,-0.0109,-0.0151,-0.0118,-0.0118,-0.0309,-0.0418,-0.0109,-0.0109,-0.0108,-0.0108,0,0.0617,0.0625,0.0684,0.0718,0.0739,0.0793,0.0848,0.0897,0.0898,0.0949,0.0945,0.0859,0.0738,0.0526,0.0326,0.0164,-0.0097,-0.0072,-0.0014,-0.0048,-0.0314,-0.0417,-0.0545,-0.0629,-0.0165,-0.0166,-0.0166,0,0.065,0.069,0.0759,0.0803,0.0823,0.0897,0.0946,0.097,0.1029,0.1048,0.1084,0.0988,0.0948,0.0661,0.036,0.0096,-0.0101,-0.006,-0.0118,-0.0294,-0.0441,-0.0519,-0.0586,-0.0075,-0.0075,-0.0075,-0.0074,0,0.0711,0.074,0.0789,0.0885,0.0953,0.1034,0.1115,0.119,0.1219,0.1271,0.1328,0.1305,0.1032,0.0794,0.0415,0.0211,-0.0171,-0.0062,-0.0257,-0.0373,-0.0449,-0.0561,-0.0104,-0.0071,-0.0072,-0.0072,-0.0072,-0.0072,0.0756,0.0804,0.0875,0.0967,0.105,0.1166,0.1252,0.1346,0.1465,0.1569,0.1534,0.1561,0.1193,0.0697,0.038,-0.0149,-0.0176,-0.0307,-0.0413,-0.0472,-0.0563,-0.0093,-0.0111,-0.0111,-0.0112,-0.0112,-0.0112,0,0.0804,0.086,0.0946,0.106,0.1159,0.1198,0.1353,0.1453,0.1608,0.1734,0.1804,0.1689,0.1219,0.0712,0.0,-0.0409,-0.0568,-0.0642,-0.0746,-0.0797,-0.0378,-0.0386,-0.0448,-0.0448,-0.0448,-0.0448,-0.0448,-0.0448,0.0829,0.0918,0.0964,0.1133,0.1217,0.1364,0.1463,0.1621,0.176,0.1948,0.2022,0.2053,0.17,0.0373,-0.0548,-0.0776,-0.106,-0.1119,-0.1292,-0.1019,-0.0997,-0.0975,-0.1009,-0.1201,-0.1202,-0.1643,-0.1647,-0.1651]}],[{"header":{"parameterUnit":"m.s-1","parameterCategory":2,"la1":30.2991,"la2":30.254,"lo1":-89.0895,"lo2":-89.0444,"dy":0.0017,"dx":0.0017,"nx":28,"ny":28,"refTime":"2024-05-02T09:00:00:Z","depth":"2","parameterNumber":2,"parameterNumberName":"U-component_of_CURRENTS"},"data":[0,0,0,0,0,0,0,0,0,0,0,0,0,0,0,0,0,0,0,0,0,0,0,0,0,0,0,0,0,0,0,0,0,0,0,0,0,0,0,0,0,0,0,0,0,0,0,0,0,0,0,0,0,0,0,0,0,0,0.2931,0.2933,0,0.3066,0.3067,0.3069,0.3101,0.31,0.31,0.3099,0.3035,0.3034,0.3033,0,0,0,0,0,0,0,0,0,0,0,0,0,0.277,0.2772,0.2931,0.2933,0.2935,0.3066,0.3067,0.3069,0.3101,0.31,0.31,0.3099,0.3035,0.3034,0.3033,0,0,0,0,0,0,0,0,0,0,0,0,0,0.2863,0.2773,0.2931,0.2968,0.2973,0.3065,0.3068,0.307,0.3101,0.31,0.3099,0.3098,0.3036,0.3034,0.3032,0.3043,0,0,0.3028,0.3027,0,0,0,0,0,0,0,0,0.2858,0.2869,0.2961,0.2966,0.2972,0.3068,0.2988,0.3052,0.3102,0.305,0.3099,0.3098,0.3029,0.3028,0.3056,0.304,0.3038,0.3027,0.3026,0.3026,0.3025,0,0,0,0,0,0,0,0.2851,0.2864,0.2982,0.2963,0.297,0.3002,0.3013,0.3001,0.3039,0.3055,0.3058,0.3077,0.303,0.3057,0.3054,0.3037,0.3027,0.3026,0.3025,0.3024,0.3077,0.3079,0,0,0,0,0,0,0.2837,0.2858,0.2978,0.2986,0.2914,0.3006,0.3018,0.3036,0.3043,0.3046,0.3078,0.3078,0.3061,0.3056,0.3051,0.3081,0.3026,0.3024,0.3023,0.3075,0.3078,0.308,0,0,0,0,0,0,0.2833,0.2847,0.2973,0.2927,0.2945,0.3009,0.3029,0.3039,0.3061,0.3063,0.3061,0.3088,0.306,0.3054,0.3052,0.3077,0.3024,0.3022,0.3072,0.3076,0.3079,0.3127,0,0,0,0,0,0,0.2828,0.2844,0.2859,0.2926,0.2947,0.3007,0.3031,0.3043,0.3076,0.3077,0.3071,0.3066,0.3058,0.3055,0.305,0.3074,0.3021,0.3069,0.3074,0.3078,0.3122,0.3132,0.314,0,0,0,0,0,0.2822,0.2832,0.2859,0.2874,0.2963,0.3007,0.302,0.3061,0.3077,0.3078,0.3096,0.3065,0.3081,0.3055,0.3049,0.3073,0.3067,0.3072,0.3077,0.3118,0.313,0.3139,0,0,0,0,0,0,0.2761,0.2839,0.2869,0.2901,0.2945,0.3013,0.3032,0.306,0.3083,0.3088,0.3081,0.3077,0.3085,0.308,0.3052,0.3108,0.3074,0.3079,0.3107,0.3118,0.3126,0.3092,0.302,0,0,0,0,0,0.2759,0.2792,0.286,0.2885,0.291,0.2973,0.3001,0.3032,0.3063,0.3074,0.3074,0.309,0.3108,0.311,0.3112,0.3133,0.3118,0.3153,0.3161,0.3168,0.3142,0.3171,0.3178,0.3098,0.3098,0.3098,0,0,0.2745,0.2792,0.2811,0.2876,0.2921,0.2959,0.2986,0.3028,0.3059,0.306,0.3086,0.3102,0.3118,0.315,0.3155,0.3144,0.3189,0.3175,0.3181,0.3149,0.3177,0.3184,0.3191,0.3101,0.3101,0.31,0,0,0.2727,0.2772,0.2795,0.2837,0.2907,0.2948,0.2955,0.3021,0.3046,0.3083,0.3104,0.3129,0.3151,0.3176,0.3193,0.3247,0.3225,0.3268,0.3288,0.3318,0.3324,0.3328,0.3332,0.3336,0.3284,0.3284,0.3284,0,0.2706,0.275,0.2804,0.2839,0.2878,0.2938,0.2968,0.3009,0.3064,0.3088,0.3086,0.3161,0.3161,0.3221,0.3251,0.326,0.3272,0.3244,0.3326,0.333,0.3334,0.3336,0.334,0.3287,0.3286,0.3286,0.3286,0,0.2718,0.2752,0.2766,0.2837,0.2878,0.2911,0.2981,0.3014,0.3055,0.31,0.3152,0.3181,0.3227,0.3251,0.3263,0.3318,0.3315,0.3323,0.3289,0.3344,0.3344,0.3348,0.3291,0.329,0.3289,0.3288,0,0,0.2663,0.2757,0.2759,0.2792,0.2883,0.2912,0.2971,0.3036,0.3076,0.3129,0.3178,0.3232,0.3261,0.3282,0.3318,0.3345,0.3388,0.3353,0.3353,0.3337,0.3447,0.3419,0.342,0.3425,0.3425,0.3426,0.3439,0,0.2653,0.2703,0.2761,0.2806,0.2839,0.2918,0.2962,0.3032,0.3093,0.3149,0.3208,0.3259,0.3276,0.3313,0.3347,0.3379,0.3399,0.3382,0.3411,0.341,0.3364,0.3424,0.3191,0.3181,0.3442,0.3442,0.3443,0,0.2641,0.268,0.2722,0.2798,0.282,0.2859,0.2949,0.3001,0.3102,0.3153,0.3231,0.3278,0.3346,0.3343,0.3413,0.3412,0.3423,0.3433,0.3435,0.3383,0.3389,0.3169,0.3177,0.3448,0.3448,0.3447,0.3447,0,0.2573,0.2645,0.2675,0.2706,0.2805,0.2839,0.2896,0.2999,0.3055,0.3163,0.3213,0.3302,0.3356,0.3392,0.3441,0.3436,0.3495,0.3492,0.3466,0.3463,0.3251,0.3229,0.3508,0.3508,0.3508,0.3508,0.3508,0,0.2538,0.2559,0.2645,0.2665,0.2704,0.2795,0.2853,0.2928,0.3041,0.3103,0.3212,0.3276,0.3373,0.3433,0.3451,0.3481,0.3513,0.3459,0.3469,0.3266,0.3246,0.3461,0.3455,0.3509,0.3508,0.3508,0.3508,0,0.2465,0.2519,0.2557,0.2648,0.2675,0.2709,0.283,0.287,0.2991,0.3079,0.3118,0.3272,0.3358,0.3434,0.3497,0.3494,0.3516,0.3509,0.3258,0.3238,0.3452,0.345,0.347,0.3469,0.3468,0.3468,0.3467,0,0.2437,0.2448,0.2528,0.2546,0.2589,0.2655,0.2693,0.2829,0.2891,0.3066,0.3098,0.3232,0.3313,0.3416,0.3438,0.3466,0.3511,0.3244,0.3182,0.3443,0.3451,0.3449,0.3447,0.2918,0.2913,0.2909,0.2906,0,0.2385,0.241,0.2441,0.2476,0.2512,0.2556,0.2636,0.268,0.2833,0.2916,0.3034,0.3115,0.3247,0.3203,0.3266,0.3245,0.3226,0.3164,0.35,0.2983,0.2929,0.2936,0.295,0.287,0.2874,0.2876,0.2878,0.288,0.2339,0.2341,0.2374,0.2395,0.2428,0.2448,0.2452,0.2547,0.2625,0.2724,0.2881,0.292,0.2997,0.2993,0.292,0.2871,0.3089,0.2946,0.2954,0.2969,0.2922,0.2872,0.2791,0.2794,0.2796,0.2799,0.2801,0,0.2269,0.2277,0.2292,0.2303,0.2284,0.2346,0.2392,0.2376,0.2412,0.2537,0.2626,0.2492,0.25,0.2553,0.2447,0.2473,0.241,0.2355,0.2246,0.2288,0.2323,0.2238,0.1928,0.1924,0.1921,0.1918,0,0,0.2235,0.2209,0.2207,0.2149,0.2156,0.2104,0.2103,0.2105,0.2162,0.2167,0.2183,0.2398,0.2509,0.2182,0.2165,0.2018,0.2118,0.194,0.2656,0.2571,0.2601,0.2701,0.2624,0,0,0,0,0]},{"header":{"parameterUnit":"m.s-1","parameterCategory":2,"la1":30.2991,"la2":30.254,"lo1":-89.0895,"lo2":-89.0444,"dy":0.0017,"dx":0.0017,"nx":28,"ny":28,"refTime":"2024-05-02T09:00:00:Z","depth":"2","parameterNumber":3,"parameterNumberName":"V-component_of_CURRENTS"},"data":[0,0,0,0,0,0,0,0,0,0,0,0,0,0,0,0,0,0,0,0,0,0,0,0,0,0,0,0,0,0,0,0,0,0,0,0,0,0,0,0,0,0,0,0,0,0,0,0,0,0,0,0,0,0,0,0,0,0,0.0062,0.0061,0,-0.0017,-0.0018,-0.002,-0.0082,-0.0083,-0.0083,-0.0083,-0.0164,-0.0166,-0.0168,0,0,0,0,0,0,0,0,0,0,0,0,0,0.0083,0.0083,0.0062,0.0061,0.006,-0.0017,-0.0019,-0.002,-0.0082,-0.0083,-0.0083,-0.0084,-0.0164,-0.0166,-0.0168,0,0,0,0,0,0,0,0,0,0,0,0,0,0.0043,0.0083,0.0062,0.0022,0.0018,-0.0017,-0.0019,-0.002,-0.0082,-0.0083,-0.0083,-0.0084,-0.0163,-0.0166,-0.0168,-0.0175,0,0,-0.0177,-0.0178,0,0,0,0,0,0,0,0,0.0046,0.0042,0.0029,0.0025,0.002,-0.0038,-0.0041,-0.0071,-0.0082,-0.0047,-0.0083,-0.0084,-0.012,-0.0126,-0.0144,-0.0179,-0.0182,-0.0177,-0.0179,-0.018,-0.018,0,0,0,0,0,0,0,0.0049,0.0045,0.0027,0.0028,0.0023,-0.0017,-0.0023,-0.0047,-0.0082,-0.0051,-0.0054,-0.0058,-0.0123,-0.0141,-0.0146,-0.0183,-0.0177,-0.0179,-0.0181,-0.0182,-0.025,-0.0251,0,0,0,0,0,0,0.0069,0.0048,0.003,0.0025,0.0035,-0.0017,-0.0024,-0.0021,-0.0082,-0.0091,-0.0058,-0.0061,-0.0136,-0.0143,-0.0149,-0.0154,-0.018,-0.0182,-0.0184,-0.025,-0.025,-0.0251,0,0,0,0,0,0,0.007,0.0069,0.0033,0.0037,0.003,-0.0016,-0.0013,-0.0022,-0.0039,-0.0087,-0.0097,-0.0064,-0.0137,-0.0146,-0.0168,-0.0158,-0.0183,-0.0186,-0.025,-0.025,-0.025,-0.0167,0,0,0,0,0,0,0.0071,0.007,0.0075,0.0039,0.003,0.0023,-0.0013,-0.0024,-0.0039,-0.0044,-0.0095,-0.0104,-0.0138,-0.0164,-0.0171,-0.0162,-0.0188,-0.025,-0.025,-0.025,-0.0169,-0.0164,-0.016,0,0,0,0,0,0.0072,0.009,0.0076,0.0073,0.0041,0.0024,0.0017,-0.0021,-0.0039,-0.0039,-0.0078,-0.0102,-0.0171,-0.0166,-0.0174,-0.0166,-0.025,-0.025,-0.025,-0.0171,-0.0165,-0.016,0,0,0,0,0,0,0.0105,0.0084,0.0068,0.0079,0.0057,0.0015,0.0012,-0.0013,-0.0045,-0.0051,-0.0099,-0.0109,-0.0126,-0.016,-0.0153,-0.019,-0.0217,-0.0219,-0.0154,-0.0148,-0.0144,-0.0111,-0.019,0,0,0,0,0,0.0115,0.0123,0.0093,0.0103,0.0094,0.0054,0.0041,0.0017,-0.0014,-0.0029,-0.0064,-0.0105,-0.0136,-0.0152,-0.0184,-0.0198,-0.0226,-0.0203,-0.0198,-0.0193,-0.0175,-0.0211,-0.0207,-0.0252,-0.0252,-0.0252,0,0,0.013,0.0122,0.0125,0.011,0.0088,0.0086,0.0044,0.0034,0.0033,-0.0031,-0.0042,-0.0085,-0.0136,-0.0154,-0.0166,-0.018,-0.0197,-0.0194,-0.0189,-0.0173,-0.0211,-0.0206,-0.0202,-0.0252,-0.0252,-0.0252,0,0,0.0169,0.0158,0.0173,0.0159,0.0138,0.0115,0.0117,0.0079,0.0062,0.0044,-0.0003,-0.0031,-0.0083,-0.0112,-0.0135,-0.0122,-0.0169,-0.0145,-0.0093,-0.0128,-0.0124,-0.0121,-0.0152,-0.0153,-0.0144,-0.0144,-0.0144,0,0.0186,0.0203,0.0175,0.0184,0.0182,0.0135,0.0148,0.0126,0.0086,0.0082,0.0052,-0.0017,-0.0058,-0.0075,-0.0076,-0.0106,-0.0139,-0.0106,-0.0119,-0.0117,-0.0115,-0.0148,-0.0149,-0.014,-0.0141,-0.0141,-0.0141,0,0.0229,0.0241,0.0251,0.0249,0.0242,0.0248,0.0218,0.0208,0.018,0.0155,0.0132,0.007,0.0031,0.0006,-0.0031,-0.004,-0.0072,-0.0104,-0.0125,-0.0104,-0.0142,-0.0144,-0.0134,-0.0136,-0.0137,-0.0138,0,0,0.0277,0.0281,0.0286,0.0298,0.0278,0.0282,0.0285,0.0278,0.0291,0.0237,0.0242,0.0182,0.0144,0.0116,0.006,0.0027,0.0009,-0.0029,-0.0033,-0.0044,-0.0072,-0.0084,-0.0089,-0.0032,-0.0032,-0.0032,-0.0103,0,0.0319,0.0359,0.0347,0.0384,0.04,0.0367,0.0379,0.0366,0.0343,0.0335,0.027,0.0251,0.0187,0.0167,0.0125,0.004,0.0005,0.0031,-0.0104,-0.0107,-0.0108,-0.0091,-0.0059,-0.0119,-0.0106,-0.0107,-0.0107,0,0.0366,0.0388,0.0435,0.046,0.0464,0.0481,0.0498,0.0502,0.0476,0.0457,0.0421,0.0361,0.0311,0.0246,0.0128,0.0143,0.005,-0.0022,-0.0027,-0.0064,-0.0124,-0.014,-0.0125,-0.0112,-0.0112,-0.0112,-0.0111,0,0.042,0.0453,0.0499,0.0504,0.052,0.0542,0.0551,0.0545,0.0567,0.0538,0.0541,0.046,0.0424,0.0303,0.0156,0.0137,0.0018,-0.0031,-0.0127,-0.013,-0.0139,-0.0142,-0.011,-0.011,-0.011,-0.011,-0.0109,0,0.0472,0.0508,0.0532,0.0557,0.062,0.0607,0.0669,0.0663,0.067,0.0706,0.0613,0.0617,0.0435,0.0338,0.0191,0.0035,0.0044,-0.0104,-0.0143,-0.0111,-0.011,-0.0136,-0.0138,-0.0112,-0.0112,-0.0111,-0.0111,0,0.0523,0.0535,0.0591,0.0628,0.0648,0.0694,0.075,0.0789,0.0786,0.0826,0.0821,0.0738,0.0615,0.0429,0.0234,0.0095,-0.0062,-0.0124,-0.0069,-0.0101,-0.0199,-0.0196,-0.0238,-0.0239,-0.0239,-0.024,-0.0241,0,0.055,0.0586,0.0652,0.0691,0.0714,0.0779,0.0825,0.0847,0.0899,0.0907,0.0937,0.0833,0.0781,0.0497,0.0234,-0.0017,-0.0059,-0.0158,-0.0186,-0.0175,-0.021,-0.0206,-0.0202,-0.0173,-0.0173,-0.0173,-0.0173,0,0.0602,0.0627,0.0673,0.076,0.0821,0.0897,0.097,0.1033,0.1062,0.1095,0.1128,0.1088,0.0822,0.0577,0.0229,0.0062,-0.0116,-0.0165,-0.0166,-0.014,-0.0118,-0.0151,-0.0149,-0.0172,-0.0172,-0.0172,-0.0172,-0.0173,0.0641,0.0683,0.0746,0.0829,0.0906,0.1008,0.1082,0.1163,0.1256,0.1322,0.1278,0.1228,0.0942,0.0509,0.0202,-0.0121,-0.0109,-0.0222,-0.0221,-0.022,-0.0194,-0.0174,-0.0234,-0.0234,-0.0234,-0.0235,-0.0235,0,0.0683,0.0731,0.0807,0.0908,0.0997,0.1035,0.1171,0.1247,0.1364,0.1425,0.1451,0.1184,0.0903,0.0568,0.0088,-0.0194,-0.0213,-0.028,-0.0247,-0.0244,-0.0242,-0.0217,-0.0264,-0.0265,-0.0266,-0.0267,0,0,0.0704,0.0779,0.0817,0.0965,0.1042,0.1171,0.1256,0.137,0.1452,0.1514,0.1492,0.1439,0.1022,0.067,0.0282,0.0003,-0.0052,-0.0044,0.0014,0.0104,0.0109,-0.017,-0.0124,0,0,0,0,0]}],[{"header":{"parameterUnit":"m.s-1","parameterCategory":2,"la1":30.2991,"la2":30.254,"lo1":-89.0895,"lo2":-89.0444,"dy":0.0017,"dx":0.0017,"nx":28,"ny":28,"refTime":"2024-05-02T09:00:00:Z","depth":"4","parameterNumber":2,"parameterNumberName":"U-component_of_CURRENTS"},"data":[0,0,0,0,0,0,0,0,0,0,0,0,0,0,0,0,0,0,0,0,0,0,0,0,0,0,0,0,0,0,0,0,0,0,0,0,0,0,0,0,0,0,0,0,0,0,0,0,0,0,0,0,0,0,0,0,0,0,0.1535,0.1536,0,0.1501,0.15,0.1498,0.1575,0.1578,0.1582,0.1585,0.176,0.1761,0.1762,0,0,0,0,0,0,0,0,0,0,0,0,0,0.1503,0.1503,0.1535,0.1536,0.1536,0.1501,0.15,0.1498,0.1574,0.1579,0.1583,0.1587,0.1759,0.1761,0.1762,0,0,0,0,0,0,0,0,0,0,0,0,0,0.1487,0.1503,0.1535,0.1579,0.1583,0.1502,0.15,0.1498,0.1573,0.1579,0.1584,0.1589,0.1759,0.1761,0.1763,0.1669,0,0,0.1769,0.177,0,0,0,0,0,0,0,0,0.1488,0.1486,0.1572,0.1576,0.1581,0.1558,0.1553,0.157,0.1572,0.1565,0.1585,0.1592,0.1715,0.1721,0.1683,0.1678,0.1685,0.1769,0.177,0.1771,0.1772,0,0,0,0,0,0,0,0.1489,0.1487,0.151,0.1572,0.1578,0.1545,0.1549,0.1554,0.1606,0.1566,0.1574,0.1587,0.1718,0.1681,0.1689,0.1688,0.1769,0.1771,0.1772,0.1773,0.1904,0.1907,0,0,0,0,0,0,0.1519,0.1489,0.1511,0.151,0.1559,0.1543,0.1546,0.155,0.1601,0.1616,0.1583,0.1591,0.1675,0.1686,0.1696,0.1828,0.1771,0.1773,0.1774,0.1902,0.1905,0.1907,0,0,0,0,0,0,0.1518,0.152,0.1513,0.1509,0.1507,0.154,0.1542,0.1547,0.1598,0.1614,0.1632,0.1641,0.1679,0.1693,0.1791,0.1828,0.1774,0.1776,0.19,0.1903,0.1906,0.1942,0,0,0,0,0,0,0.1517,0.152,0.1542,0.151,0.1509,0.1542,0.1539,0.1543,0.1598,0.161,0.1668,0.1684,0.1685,0.1788,0.1793,0.183,0.1777,0.1897,0.1901,0.1905,0.1938,0.1946,0.1953,0,0,0,0,0,0.1515,0.1533,0.1542,0.1547,0.1535,0.1545,0.1542,0.1572,0.1597,0.1633,0.1681,0.1687,0.1819,0.1791,0.1796,0.1835,0.1895,0.19,0.1905,0.1934,0.1944,0.1953,0,0,0,0,0,0,0.1535,0.1542,0.1552,0.1574,0.1596,0.1565,0.1591,0.1608,0.1656,0.1684,0.1707,0.1726,0.1821,0.1828,0.1797,0.1889,0.186,0.1866,0.1881,0.189,0.1898,0.1911,0.1779,0,0,0,0,0,0.1544,0.1559,0.157,0.159,0.1608,0.1605,0.1618,0.1639,0.167,0.1697,0.1734,0.1779,0.182,0.1865,0.1891,0.1937,0.1954,0.1971,0.1978,0.1984,0.2002,0.2059,0.2073,0.1924,0.1924,0.1924,0,0,0.1554,0.1562,0.1572,0.1596,0.1602,0.1622,0.1627,0.1665,0.1697,0.1707,0.1778,0.1808,0.1841,0.1896,0.194,0.1926,0.2036,0.1991,0.1996,0.201,0.2066,0.208,0.2093,0.1928,0.1927,0.1927,0,0,0.1573,0.1595,0.1617,0.1636,0.1674,0.1669,0.1707,0.1719,0.1757,0.1811,0.1831,0.1902,0.1949,0.1978,0.1998,0.2067,0.2072,0.2082,0.2133,0.2188,0.22,0.2211,0.2245,0.2259,0.2089,0.2089,0.2089,0,0.1594,0.161,0.1629,0.1655,0.1677,0.1708,0.174,0.1759,0.1807,0.1846,0.1866,0.195,0.1983,0.2054,0.2083,0.2084,0.2111,0.2088,0.2196,0.2207,0.2218,0.2251,0.2266,0.2091,0.2091,0.209,0.209,0,0.1613,0.1645,0.1663,0.1699,0.173,0.1762,0.18,0.185,0.1895,0.1914,0.2015,0.2044,0.2108,0.212,0.2124,0.2215,0.2208,0.2192,0.2166,0.2235,0.2265,0.228,0.2094,0.2093,0.2093,0.2092,0,0,0.1613,0.1667,0.1678,0.1705,0.1758,0.178,0.1849,0.1913,0.1976,0.2028,0.2107,0.217,0.22,0.2227,0.224,0.2287,0.2378,0.2282,0.2283,0.2304,0.2497,0.2327,0.2326,0.2384,0.2387,0.2389,0.2485,0,0.1631,0.1678,0.1705,0.1761,0.1789,0.1841,0.19,0.1967,0.2031,0.2113,0.217,0.2248,0.2237,0.2282,0.2329,0.2373,0.2421,0.2353,0.2439,0.2441,0.2271,0.2339,0.2399,0.2495,0.2499,0.2501,0.2503,0,0.1637,0.1668,0.1725,0.1795,0.1818,0.1863,0.1969,0.203,0.2145,0.22,0.2287,0.2331,0.2429,0.24,0.2515,0.2477,0.2503,0.2519,0.2522,0.2363,0.2298,0.2417,0.253,0.2527,0.2526,0.2524,0.2522,0,0.161,0.1682,0.173,0.1751,0.1836,0.1893,0.1956,0.2067,0.2137,0.2274,0.2336,0.244,0.2513,0.2569,0.2612,0.2585,0.2716,0.2677,0.2545,0.2533,0.264,0.2627,0.276,0.276,0.2759,0.2759,0.2759,0,0.1592,0.1636,0.1729,0.175,0.1829,0.1899,0.2003,0.2083,0.2207,0.2285,0.2391,0.2453,0.2564,0.264,0.2659,0.2646,0.2762,0.2569,0.2552,0.2652,0.264,0.265,0.2635,0.2763,0.2762,0.2761,0.2761,0,0.1547,0.1607,0.1669,0.1775,0.1816,0.188,0.2019,0.2081,0.2217,0.2322,0.2374,0.2509,0.2596,0.2672,0.2767,0.2691,0.2704,0.2669,0.2781,0.2766,0.2471,0.2459,0.2529,0.2524,0.2519,0.2516,0.2513,0,0.1521,0.155,0.1675,0.1715,0.177,0.1874,0.1933,0.2074,0.2135,0.2323,0.2354,0.2498,0.2564,0.2563,0.2651,0.2678,0.2642,0.263,0.2536,0.2475,0.2452,0.2446,0.2439,0.2506,0.2505,0.2504,0.2502,0,0.147,0.1536,0.1585,0.1668,0.1739,0.1805,0.1905,0.1936,0.2089,0.2229,0.2279,0.2321,0.2408,0.2459,0.25,0.251,0.2626,0.2584,0.2592,0.2503,0.2448,0.2428,0.2427,0.2488,0.249,0.2491,0.2492,0,0.144,0.1463,0.1538,0.1597,0.1678,0.1703,0.1771,0.1828,0.1905,0.2097,0.2109,0.2249,0.2381,0.2373,0.2412,0.2409,0.2364,0.2276,0.2299,0.2316,0.2199,0.2094,0.2025,0,0,0,0,0,0.1393,0.1401,0.1451,0.15,0.1572,0.1619,0.1728,0.1795,0.1938,0.1919,0.2008,0.2072,0.2118,0.2194,0.2149,0.2322,0.2379,0.2258,0.229,0.2405,0.2422,0.2301,0,0,0,0,0,0,0.1358,0.1405,0.1414,0.1401,0.1415,0.1476,0.1539,0.1637,0.1637,0.1791,0.183,0.1946,0.2029,0.2124,0.2109,0.2132,0.2109,0.2351,0.2345,0.2395,0.2411,0.2424,0.2307,0,0,0,0,0]},{"header":{"parameterUnit":"m.s-1","parameterCategory":2,"la1":30.2991,"la2":30.254,"lo1":-89.0895,"lo2":-89.0444,"dy":0.0017,"dx":0.0017,"nx":28,"ny":28,"refTime":"2024-05-02T09:00:00:Z","depth":"4","parameterNumber":3,"parameterNumberName":"V-component_of_CURRENTS"},"data":[0,0,0,0,0,0,0,0,0,0,0,0,0,0,0,0,0,0,0,0,0,0,0,0,0,0,0,0,0,0,0,0,0,0,0,0,0,0,0,0,0,0,0,0,0,0,0,0,0,0,0,0,0,0,0,0,0,0,0.0209,0.0209,0,0.0219,0.0219,0.0219,0.0205,0.0204,0.0203,0.0203,0.0123,0.0122,0.0121,0,0,0,0,0,0,0,0,0,0,0,0,0,0.0183,0.0183,0.0209,0.0209,0.0208,0.0218,0.0219,0.0219,0.0205,0.0204,0.0203,0.0202,0.0124,0.0122,0.0121,0,0,0,0,0,0,0,0,0,0,0,0,0,0.0196,0.0184,0.0209,0.0201,0.02,0.0218,0.0219,0.0219,0.0205,0.0204,0.0203,0.0202,0.0124,0.0122,0.012,0.0129,0,0,0.0114,0.0113,0,0,0,0,0,0,0,0,0.0195,0.0197,0.0202,0.0201,0.02,0.0207,0.0181,0.0184,0.0205,0.0206,0.0203,0.0201,0.0142,0.0139,0.0148,0.0126,0.0122,0.0114,0.0112,0.0111,0.0111,0,0,0,0,0,0,0,0.0194,0.0197,0.0215,0.0202,0.0201,0.0198,0.0199,0.0182,0.018,0.0206,0.0204,0.0201,0.0141,0.015,0.0146,0.0121,0.0114,0.0112,0.0111,0.011,0.007,0.0071,0,0,0,0,0,0,0.0189,0.0196,0.0215,0.0215,0.0192,0.0199,0.02,0.0208,0.0183,0.0178,0.0202,0.0201,0.0154,0.0148,0.0143,0.0133,0.0111,0.0109,0.0108,0.007,0.007,0.0071,0,0,0,0,0,0,0.0189,0.0191,0.0214,0.0203,0.0205,0.0201,0.021,0.0209,0.0208,0.0181,0.0174,0.0201,0.0153,0.0146,0.0126,0.013,0.0109,0.0107,0.007,0.007,0.0071,0.0124,0,0,0,0,0,0,0.0188,0.0191,0.02,0.0203,0.0206,0.0216,0.021,0.021,0.0208,0.0205,0.0177,0.017,0.0152,0.0129,0.0124,0.0126,0.0105,0.007,0.007,0.007,0.0122,0.0126,0.013,0,0,0,0,0,0.0187,0.02,0.0201,0.0203,0.0217,0.0216,0.0217,0.0212,0.0209,0.0208,0.0194,0.017,0.0128,0.0128,0.0122,0.0124,0.0069,0.007,0.007,0.012,0.0125,0.013,0,0,0,0,0,0,0.0194,0.02,0.02,0.0215,0.0211,0.0212,0.0217,0.0212,0.0205,0.0204,0.0176,0.0168,0.0152,0.013,0.0132,0.0113,0.0093,0.0092,0.0133,0.0138,0.0142,0.0145,0.0103,0,0,0,0,0,0.02,0.0213,0.021,0.0223,0.0222,0.0221,0.0222,0.0218,0.021,0.0207,0.0186,0.0167,0.0153,0.0139,0.0121,0.0112,0.0079,0.0107,0.0111,0.0115,0.0113,0.007,0.0069,0.0072,0.0072,0.0072,0,0,0.0207,0.0212,0.022,0.0225,0.0227,0.0234,0.0219,0.0222,0.0229,0.0198,0.0199,0.0179,0.0153,0.0146,0.0136,0.0126,0.0098,0.0116,0.0119,0.0114,0.007,0.007,0.0069,0.0073,0.0073,0.0073,0,0,0.0225,0.0231,0.0246,0.0245,0.0246,0.0245,0.0243,0.024,0.0238,0.0238,0.0218,0.02,0.0179,0.0163,0.0153,0.0165,0.0121,0.0157,0.0178,0.0137,0.0137,0.0136,0.0099,0.0094,0.0158,0.0158,0.0158,0,0.0232,0.0255,0.0248,0.026,0.0266,0.025,0.0264,0.0262,0.0252,0.0253,0.024,0.0212,0.0188,0.0179,0.0186,0.0173,0.0143,0.0166,0.0142,0.0141,0.0139,0.0101,0.0095,0.0161,0.0161,0.016,0.016,0,0.0259,0.0276,0.0284,0.0298,0.03,0.031,0.0303,0.0302,0.0297,0.0293,0.0279,0.025,0.0231,0.0222,0.021,0.0188,0.0169,0.0154,0.0132,0.0142,0.0101,0.0094,0.0165,0.0164,0.0163,0.0162,0,0,0.0278,0.03,0.0304,0.0322,0.0324,0.0332,0.0339,0.0343,0.0355,0.033,0.0333,0.0306,0.0284,0.027,0.0244,0.0208,0.0172,0.0179,0.0176,0.0146,0.0081,0.008,0.0071,0.0152,0.0151,0.015,0.006,0,0.0303,0.0338,0.0341,0.0375,0.0393,0.0384,0.0397,0.0396,0.039,0.0385,0.0345,0.0339,0.0305,0.03,0.0257,0.0198,0.0155,0.0198,0.0073,0.0069,0.007,0.0064,0.0147,0.0055,0.0053,0.0052,0.0051,0,0.033,0.0353,0.0393,0.0426,0.0433,0.0451,0.0472,0.0481,0.0465,0.0459,0.0431,0.0396,0.0349,0.0316,0.0204,0.0234,0.016,0.0105,0.01,0.0074,0.0055,0.004,0.0037,0.0038,0.0039,0.004,0.0041,0,0.0355,0.0392,0.0431,0.0441,0.0469,0.049,0.0506,0.0507,0.0528,0.0505,0.051,0.0438,0.0413,0.0308,0.0201,0.0198,0.0071,0.0052,-0.0024,-0.0025,-0.0021,-0.0019,-0.0041,-0.0041,-0.0041,-0.0041,-0.004,0,0.0383,0.0414,0.0451,0.0472,0.0527,0.0531,0.0582,0.0583,0.0592,0.0619,0.0553,0.0549,0.0409,0.0324,0.0209,0.0077,0.0074,-0.0026,-0.0051,0.0005,0.0011,-0.0026,-0.0023,-0.0044,-0.0043,-0.0043,-0.0042,0,0.0405,0.0426,0.0477,0.0521,0.0543,0.0583,0.0644,0.0673,0.0676,0.0705,0.0701,0.063,0.0518,0.0372,0.0203,0.0104,-0.0031,-0.0081,-0.0004,-0.0022,-0.0106,-0.0099,-0.0182,-0.0183,-0.0183,-0.0184,-0.0184,0,0.0419,0.0448,0.0518,0.0555,0.0583,0.0644,0.0688,0.0716,0.0753,0.0758,0.0773,0.0679,0.061,0.0379,0.0215,-0.0013,-0.0047,-0.0125,-0.0128,-0.0105,-0.0121,-0.0113,-0.0106,-0.0186,-0.0186,-0.0186,-0.0186,0,0.0444,0.0473,0.0515,0.0594,0.0654,0.0722,0.0789,0.0823,0.0853,0.0855,0.0833,0.0709,0.058,0.0389,0.0213,0.0049,-0.0078,-0.0133,-0.0133,-0.0137,-0.0111,-0.0124,-0.0116,-0.0189,-0.0188,-0.0188,-0.0188,0,0.0465,0.0498,0.0557,0.0627,0.0706,0.078,0.0813,0.0856,0.0893,0.0897,0.0887,0.0744,0.0662,0.0421,0.0263,0.0099,0.0047,-0.0016,-0.0023,-0.0023,0.0048,0.0106,0.007,0,0,0,0,0,0.0479,0.0516,0.0581,0.0659,0.0739,0.0789,0.0871,0.0896,0.0929,0.0922,0.0909,0.0789,0.0551,0.0454,0.0289,0.023,0.0007,0.0028,-0.0071,-0.0202,-0.0199,-0.0144,0,0,0,0,0,0,0.0487,0.0547,0.0578,0.0677,0.0734,0.0826,0.0883,0.0904,0.0906,0.091,0.0794,0.0735,0.0511,0.0645,0.0282,0.0232,0.0143,-0.0079,-0.0083,-0.0204,-0.0201,-0.0199,-0.0141,0,0,0,0,0]}]]